Theta_e
340 341 340 340 340 339 337 336 335 334 332 331 331 331 331 331 329 327 327 329 330 330 331 333 334 335 335 334 334 334 333 332 332 332 332 332 332 332 332 332 332 331
339 341 342 341 341 340 339 339 337 336 335 333 332 332 332 332 332 330 327 328 329 330 331 333 335 335 335 334 335 335 333 332 331 331 331 331 331 331 332 332 331 331
339 344 344 343 341 342 341 341 339 337 337 335 334 333 333 333 332 331 328 328 328 328 332 334 336 336 335 334 335 335 333 332 331 330 330 331 331 332 332 332 331 331
340 344 345 344 343 342 343 342 341 340 338 337 336 334 334 334 333 332 331 329 328 328 331 334 336 336 335 335 335 334 333 333 332 332 332 331 331 332 332 332 332 332
341 342 343 345 345 343 343 342 342 341 340 338 338 336 335 335 334 333 333 331 329 330 331 334 336 336 336 335 335 334 334 334 333 333 333 332 332 333 333 332 332 332
341 342 341 342 345 344 343 343 343 342 341 340 339 338 336 336 336 335 333 331 329 330 331 332 334 336 337 336 335 334 334 334 334 334 334 334 334 334 333 333 332 332
339 341 341 340 342 344 344 344 344 343 342 341 340 339 338 338 337 336 335 332 329 329 330 329 330 334 336 336 335 334 334 334 335 335 335 335 334 334 334 333 333 333
335 337 338 337 337 341 344 344 344 344 344 342 341 340 340 339 338 338 336 334 332 331 331 330 329 332 335 336 335 335 334 335 336 336 335 335 334 334 334 333 333 332
336 336 333 329 330 338 343 344 344 345 344 344 343 342 341 340 340 339 337 336 336 335 332 330 329 330 334 336 336 336 335 335 336 336 335 334 333 333 332 332 331 331
336 337 330 326 329 335 341 344 345 345 345 344 344 343 342 341 340 340 339 338 338 338 335 332 330 331 333 336 336 336 336 336 336 336 334 333 332 332 331 331 331 330
335 334 329 328 330 335 342 345 345 346 345 344 344 344 343 342 342 341 341 340 339 339 337 335 334 332 334 336 337 337 337 337 337 335 333 332 332 331 330 330 330 330
334 333 332 332 331 337 343 345 346 346 346 344 344 344 343 342 342 342 342 341 340 340 339 338 337 335 335 336 338 338 338 337 336 335 333 332 331 330 330 330 329 330
331 331 332 332 332 337 343 345 345 346 346 345 344 343 343 343 343 342 342 341 341 340 339 339 338 338 337 337 338 338 338 337 335 334 333 332 331 331 330 330 329 329
328 330 330 331 334 338 342 344 345 346 346 345 344 343 343 343 344 343 342 342 341 340 339 339 339 339 339 338 338 338 338 337 336 334 333 332 331 330 330 329 329 329
331 332 332 333 336 339 342 344 344 345 346 345 345 343 343 344 344 344 343 342 341 340 339 339 339 339 339 338 338 337 337 336 335 334 333 332 331 330 330 329 328 328
337 336 335 336 337 339 341 343 344 345 345 345 345 344 343 343 344 344 343 342 341 340 339 339 338 338 339 338 337 337 336 335 334 333 332 331 331 330 329 328 328 327
340 339 339 337 337 338 340 342 343 344 345 345 345 344 343 343 344 344 344 342 341 340 339 339 338 338 338 338 337 336 336 335 334 333 332 331 330 330 329 327 327 326
339 341 341 339 338 338 338 339 341 344 345 345 345 344 343 342 343 344 343 343 342 341 340 339 338 338 338 338 338 337 336 335 333 333 332 331 330 330 328 327 326 325
343 344 343 341 340 338 337 338 341 343 344 344 344 343 343 342 342 343 344 343 342 341 340 339 338 338 338 338 338 337 336 335 334 333 332 330 330 329 328 326 325 324
345 346 345 344 342 339 338 339 340 343 343 343 344 343 342 342 342 342 343 343 342 341 340 339 338 338 338 338 338 337 336 335 333 333 332 330 329 329 327 326 324 323
344 344 344 344 343 341 341 340 340 343 344 344 344 343 342 342 342 341 342 342 342 341 341 340 339 337 337 338 337 337 336 335 334 333 332 330 329 329 327 326 325 323
338 336 335 340 343 343 341 341 341 342 342 343 343 343 343 342 342 342 342 342 342 341 340 340 339 338 337 337 337 337 337 335 334 333 332 330 330 329 328 326 325 323
336 334 330 331 340 344 343 341 341 341 341 342 343 342 342 342 342 341 341 341 342 340 340 339 338 338 337 337 337 337 336 336 334 333 331 331 330 330 327 326 325 323
337 338 335 334 339 344 344 341 340 339 340 341 340 340 340 341 341 341 341 341 341 340 339 339 339 337 337 337 337 337 336 336 335 333 331 330 330 329 327 326 325 323
335 337 338 340 343 344 343 341 339 338 339 339 339 338 339 340 341 341 341 341 341 340 340 339 338 338 337 337 337 336 336 336 335 334 332 331 331 330 328 326 324 323
333 335 339 342 344 343 343 340 338 337 337 337 337 337 338 339 340 341 341 341 341 340 340 339 339 338 337 337 336 336 336 335 334 334 333 332 332 331 329 327 324 323
Wind_Speed
31 31 32 33 32 31 30 29 27 26 25 25 26 27 28 28 28 28 28 30 29 27 26 26 26 24 22 21 20 20 20 19 19 19 22 23 21 20 20 20 22 22
30 29 32 34 33 31 30 29 28 27 27 26 25 26 27 27 27 26 27 30 30 29 27 27 27 25 23 22 21 21 22 21 19 19 22 23 21 21 21 21 22 23
32 31 32 34 34 32 30 29 28 29 28 27 26 26 26 26 26 26 26 28 31 30 29 28 27 26 24 22 22 22 22 21 20 19 21 22 21 21 23 22 22 24
33 33 33 33 32 32 31 30 30 30 30 29 28 27 26 26 25 25 26 28 30 31 30 29 27 26 24 23 22 22 22 21 21 20 22 21 20 22 25 25 24 24
34 33 32 32 31 29 30 31 31 32 31 29 29 28 27 27 26 26 27 28 29 31 32 30 28 26 25 23 23 23 23 22 22 22 22 22 22 23 25 26 26 25
36 35 32 31 32 29 28 30 31 32 32 31 29 29 28 28 28 28 29 28 28 30 32 31 29 27 25 24 24 24 24 23 23 23 22 22 22 23 25 26 26 25
37 36 34 33 33 31 29 30 31 31 33 33 32 30 29 30 30 30 29 29 29 30 32 32 30 28 26 25 26 26 24 23 23 23 23 22 21 22 23 23 23 23
36 36 35 34 33 33 33 33 33 32 31 32 34 33 31 31 31 30 29 29 29 30 31 31 30 29 27 27 27 27 25 24 24 24 24 23 22 22 22 21 21 22
38 36 34 33 33 35 37 37 37 35 32 31 33 34 33 33 32 30 29 30 30 30 30 31 30 29 28 28 28 27 26 27 26 25 25 23 23 23 22 22 22 22
38 36 35 35 36 36 38 39 39 38 36 34 35 35 34 33 32 30 29 31 32 31 29 30 30 30 29 29 28 28 28 28 28 28 27 25 24 24 22 22 23 22
36 36 36 37 37 36 38 40 40 38 38 38 38 37 35 32 30 30 31 31 32 31 29 29 30 31 30 30 29 30 30 29 29 28 27 26 26 26 23 22 23 23
38 37 38 37 36 37 39 40 40 40 40 41 41 41 37 33 31 33 34 32 31 30 29 30 30 29 31 32 31 31 31 30 28 26 25 25 26 26 23 23 24 25
40 38 38 37 36 37 39 39 40 41 41 42 42 41 38 35 34 35 36 34 31 29 30 31 30 29 32 34 32 32 33 31 29 26 26 26 25 25 24 24 26 27
40 38 37 36 36 37 39 40 40 41 42 42 42 40 37 36 37 36 37 36 32 31 31 31 31 31 33 35 34 34 34 32 30 28 28 28 27 26 25 24 26 27
39 39 38 37 36 38 39 40 40 41 42 42 42 40 37 37 38 36 37 37 35 34 33 33 34 34 34 36 36 35 33 32 29 28 29 29 27 25 25 25 26 26
39 40 41 40 39 39 40 41 41 41 43 43 42 41 38 38 38 37 37 37 36 36 36 36 36 36 36 37 37 36 33 30 28 29 29 29 27 26 24 24 25 27
40 41 42 42 41 41 41 41 42 42 43 44 43 42 40 39 39 39 38 38 38 38 38 39 38 37 38 39 38 35 33 31 29 29 29 29 29 27 25 25 26 28
39 41 41 42 43 42 41 42 42 43 43 43 44 44 43 41 41 41 40 40 40 39 40 40 39 39 41 42 39 36 34 33 31 30 30 30 30 29 28 28 29 29
38 39 40 42 43 42 42 42 42 43 43 44 45 45 45 43 43 43 42 41 42 42 42 41 40 40 42 43 41 38 36 35 32 31 30 30 30 30 28 28 28 28
39 38 38 40 42 42 42 41 42 42 43 43 44 45 46 46 45 44 44 43 43 43 43 41 40 41 42 42 41 39 38 36 34 32 30 29 29 29 27 27 27 26
43 40 37 37 40 42 42 41 41 43 44 43 44 46 48 47 46 45 45 45 45 43 42 42 41 41 42 43 42 40 39 38 35 32 30 29 29 27 25 26 27 27
44 42 37 35 38 42 43 42 42 44 45 45 45 47 48 48 47 47 47 46 45 44 42 41 42 42 42 43 42 40 40 39 36 33 32 29 28 27 25 26 26 26
43 42 38 36 40 43 44 45 45 45 45 46 47 47 47 49 49 48 47 46 44 44 42 42 43 44 43 43 43 41 40 40 38 36 34 31 29 27 25 25 25 26
43 42 40 40 43 46 47 47 47 46 46 47 48 46 46 49 50 48 46 44 44 45 44 42 44 45 43 42 42 41 40 40 40 39 38 34 31 28 26 25 25 25
44 43 43 44 46 48 50 50 49 47 46 47 47 45 45 48 49 48 46 45 44 45 44 43 45 46 44 42 41 40 40 40 40 42 41 38 34 30 28 26 25 26
48 46 46 47 49 50 51 51 51 49 47 47 46 44 45 47 48 48 47 45 44 44 45 45 45 45 44 43 42 41 40 41 43 44 42 39 35 32 30 28 27 27
Wind_Direction
199 201 200 199 203 207 211 214 217 218 221 223 221 221 221 218 216 218 219 216 216 219 221 227 234 238 239 241 242 239 238 238 238 238 232 226 225 226 228 229 229 229
204 203 199 197 200 209 214 216 217 217 220 223 224 222 220 219 216 216 217 215 215 217 220 226 232 236 237 239 241 239 238 238 240 240 234 231 233 234 234 234 232 230
205 199 197 198 200 206 213 215 216 217 219 223 224 222 219 218 216 215 214 214 214 216 220 226 231 235 237 237 238 237 237 238 240 240 237 236 237 236 237 235 231 229
201 198 200 201 200 203 208 214 218 218 219 222 223 222 220 219 217 213 212 213 215 216 218 225 230 233 234 234 236 236 235 236 237 236 236 238 239 236 235 233 231 230
201 201 204 204 202 202 206 213 218 218 220 222 222 221 219 219 218 214 212 213 215 216 217 222 229 231 231 229 231 233 232 232 233 234 235 237 238 235 231 232 233 232
203 202 205 208 206 204 207 214 218 217 220 221 222 222 220 219 219 217 215 214 214 215 216 220 226 229 229 228 227 229 229 229 230 230 229 231 231 231 231 233 233 232
205 204 205 209 211 210 211 215 218 217 218 219 222 224 220 217 219 219 217 217 216 215 216 221 225 227 228 228 226 227 227 225 225 223 222 224 225 225 227 228 227 227
209 207 206 211 218 219 215 215 218 219 218 218 220 223 221 217 218 219 217 216 216 214 215 221 225 226 226 226 227 227 225 221 220 217 217 221 223 223 224 224 225 227
211 210 212 220 226 224 219 218 217 216 216 218 218 218 218 217 218 218 216 214 214 215 216 220 224 225 225 226 227 226 223 220 217 215 218 223 224 225 226 228 232 235
212 213 218 224 226 224 220 217 215 213 212 215 217 216 216 217 218 217 214 213 213 215 217 220 223 225 224 225 225 224 222 220 218 219 224 226 224 224 224 225 233 242
212 216 220 222 222 219 216 214 213 212 211 212 215 216 217 217 214 212 214 213 212 213 214 217 221 222 223 224 223 222 221 219 219 223 227 227 223 224 222 219 229 241
211 215 218 219 220 216 213 213 213 213 213 214 214 216 218 217 211 210 214 214 212 212 212 215 219 220 222 224 222 220 219 218 221 225 228 227 224 225 221 212 221 233
213 213 215 218 220 216 213 213 214 214 216 216 215 216 216 215 212 212 213 214 212 213 213 214 217 217 219 222 221 218 217 219 221 222 224 226 224 226 224 215 218 227
215 212 214 217 218 216 213 213 212 214 216 216 216 216 213 213 214 214 214 213 212 214 215 215 215 216 218 221 221 218 219 223 224 222 221 224 226 227 227 221 220 224
214 213 215 216 214 213 211 211 211 212 215 215 216 216 213 213 215 215 214 213 211 213 217 216 215 216 220 221 220 219 220 221 222 221 221 223 226 227 227 225 223 223
215 215 216 214 212 211 210 210 210 212 213 214 216 215 213 213 214 215 216 215 213 212 215 217 217 218 220 221 222 222 221 218 217 219 221 222 224 225 225 226 225 225
218 218 217 215 213 210 209 210 210 211 213 214 215 215 213 212 213 215 217 217 215 213 214 217 219 219 220 221 223 223 221 218 216 216 218 219 221 222 222 224 227 228
219 219 218 216 214 211 209 208 209 210 213 214 215 216 216 214 213 214 216 216 216 215 215 217 219 220 220 221 223 223 221 219 217 216 217 219 220 220 220 225 229 229
214 216 217 216 214 213 209 206 207 210 212 214 215 216 216 215 214 214 215 216 216 217 216 216 218 220 220 222 223 223 221 219 218 219 221 220 220 219 219 224 229 227
209 210 214 216 216 214 209 205 205 209 212 213 213 214 214 215 214 213 215 216 216 217 217 217 219 221 222 223 222 221 221 219 218 222 225 222 220 221 220 222 226 226
209 208 211 216 218 216 211 207 206 209 211 211 212 214 215 215 214 213 214 216 216 217 218 218 220 222 223 223 223 222 222 220 218 223 226 222 222 225 224 224 226 227
211 209 210 216 220 219 214 210 208 208 210 211 212 214 215 216 215 214 216 217 216 217 218 219 220 222 223 224 224 224 222 219 220 224 224 220 222 225 225 226 230 230
210 209 209 214 220 221 216 212 211 210 210 211 212 213 214 215 215 215 217 217 216 216 218 220 221 222 223 224 225 225 221 218 220 221 219 220 224 225 224 226 232 233
210 209 209 210 213 217 217 214 212 212 211 212 214 215 216 216 215 215 216 216 216 216 218 221 223 223 222 223 225 225 221 219 220 218 216 219 223 225 224 225 230 236
211 210 209 208 209 213 216 214 213 213 212 214 216 217 216 215 214 214 216 216 216 217 218 221 224 224 222 221 223 223 221 220 221 219 216 218 221 224 225 226 229 235
213 211 208 208 210 213 215 214 214 214 214 214 217 218 216 214 213 214 216 217 217 218 219 221 224 224 223 223 224 223 222 223 223 222 218 217 220 223 227 230 232 235